CAPE
0 5 42 111 84 113 173 148 129 111 1 103 370 582 1281 1191 1012 870 721 589 634 714 729 787 810 681 772 856 1058 1455 1563 2173 2328 2329 2511 3246 3182 2035 2273 1861 1597 1422 990 1065
4 0 23 70 120 34 64 174 190 95 23 151 295 321 505 1415 1206 1069 918 608 621 716 759 890 895 999 889 1173 1346 1671 1932 2206 2528 2279 2297 2108 2462 1522 1656 1847 2088 2130 1987 2168
0 11 0 104 82 25 121 203 231 90 61 127 383 191 8 562 1376 1190 1122 908 535 794 955 1040 861 1084 1151 1433 1637 2163 2596 2956 2768 2334 2475 2437 2227 2255 1857 2375 2310 2402 2186 2328
0 1 34 24 54 68 132 120 55 29 130 214 192 293 360 132 1428 1376 1239 1142 919 709 1027 853 1394 1266 647 1487 1882 2527 2960 3212 2857 2693 2700 2917 2389 2442 2294 2284 2143 3204 2727 2545
0 0 1 1 14 11 130 60 20 19 95 149 259 304 380 330 1106 1396 1386 1257 1111 972 1100 1092 1380 456 955 1270 1880 2593 2911 2926 3088 3053 2327 2435 2176 2708 3454 2302 2682 2797 2622 2422
0 0 0 0 0 1 28 2 8 0 83 196 133 279 292 178 490 859 1338 1367 1238 1181 1260 1457 1257 897 1048 1534 2021 2377 2537 2190 2376 2496 1698 1552 1805 2268 2330 2555 1390 1605 1296 1775
0 0 0 0 0 0 3 4 17 50 133 172 123 91 240 434 632 659 775 1431 1385 1402 1535 1944 1711 1644 1622 1827 2075 2293 2309 2378 2149 890 835 1009 1742 1816 1980 1639 1426 1325 862 712
0 0 0 0 0 0 0 0 7 78 126 270 29 75 367 526 1063 944 874 1293 1343 1515 1818 2118 1928 1781 1572 1895 2080 2127 2233 1670 1268 1412 1231 999 905 1000 858 961 794 746 561 386
0 0 0 0 0 0 0 0 0 1 43 126 224 23 48 794 1224 1259 1264 1178 1488 1592 2027 2126 1717 1690 1557 1600 1640 1769 1830 1692 1329 1323 1239 967 725 726 546 374 327 149 36 0
0 0 0 0 0 0 0 0 0 0 25 111 196 165 284 387 1072 1507 1364 1498 1812 1956 2063 1870 1638 1816 1692 1941 1800 1663 1683 1245 1021 861 969 644 468 275 118 37 0 0 0 0
0 0 0 0 0 0 0 0 0 1 12 61 139 268 123 16 648 1545 1641 1811 2009 2033 1941 1753 1791 1784 1743 1833 1669 1222 969 780 627 449 229 101 13 0 0 0 0 0 1 4
0 0 0 0 0 0 0 0 0 0 0 136 264 197 14 29 333 1445 1665 2005 2133 2015 1892 1949 2050 1738 1526 1622 1203 885 629 461 317 171 36 0 0 0 0 0 0 1 5 10
0 0 0 0 0 0 0 0 0 0 0 29 163 329 529 471 912 1602 1974 2027 2085 1925 1900 1909 1555 1556 1637 1177 1142 809 599 359 132 4 0 0 0 0 0 1 5 9 7 8
0 0 0 0 0 0 0 0 0 0 8 49 54 421 902 376 1051 1907 2084 2158 2087 1967 1738 1535 1568 1710 1394 1055 826 697 386 134 0 0 0 0 0 0 1 7 5 4 6 7
0 0 0 0 0 0 0 0 0 0 0 0 4 28 53 606 1154 1930 2078 2371 2202 1937 1657 1712 1586 1280 1191 734 621 490 160 2 0 0 0 1 4 5 5 4 3 1 3 3
0 0 0 0 0 0 0 0 0 0 0 0 0 0 54 825 1445 1931 2191 2233 2012 1926 1743 1759 1540 1249 996 762 581 221 6 0 0 0 2 8 9 8 9 6 3 1 0 0
4 0 0 0 0 0 0 0 0 0 0 0 0 0 32 253 1523 2062 2345 2211 2047 2018 1835 1785 1504 1291 1023 713 330 46 0 0 0 0 3 8 8 6 3 0 0 0 0 0
67 35 0 0 0 0 0 0 0 0 0 0 0 1 331 399 1283 2058 2441 2229 1997 1974 2002 1804 1552 1264 978 427 67 0 0 0 0 0 1 1 2 4 0 0 0 0 0 1
91 116 112 43 19 0 0 0 0 0 0 0 0 6 630 923 1782 2166 2235 2120 1916 2038 2019 1779 1511 1132 554 127 0 0 0 0 0 0 0 0 4 4 1 1 3 5 7 7
122 129 170 199 187 58 1 0 0 0 0 0 0 88 568 1437 1852 2048 2096 1927 1998 2012 1882 1688 1158 600 219 5 0 0 0 0 0 1 0 0 6 8 6 9 14 14 24 15
194 172 227 111 185 287 53 88 26 3 0 3 20 187 733 1533 1297 1942 1858 1945 2028 1851 1728 1244 735 401 139 0 0 0 0 0 0 1 4 2 3 5 9 17 13 14 13 5
232 183 133 101 205 192 232 189 283 130 127 178 357 184 629 1359 1456 1906 1925 2079 2030 1794 1386 887 582 302 9 0 0 0 0 0 1 5 6 5 5 12 14 18 14 7 1 29
183 60 304 312 281 541 388 307 411 895 1159 1258 747 194 1255 1504 1907 1866 2028 2073 1950 1651 1112 774 514 148 0 0 0 0 0 0 1 4 9 14 14 3 0 3 0 18 20 5
330 92 342 315 310 78 189 429 640 932 871 1088 1288 830 1419 1768 1822 1825 2043 2013 1856 1406 1044 705 303 23 0 0 0 0 0 0 0 4 10 9 7 2 0 0 2 1 1 2
633 575 819 399 312 177 217 1344 1485 1298 1112 1097 1469 1478 1716 1970 1914 2158 2136 1920 1657 1292 836 537 195 4 0 0 0 0 0 0 5 6 6 3 0 0 0 1 0 0 1 0
861 672 503 105 1743 1925 1815 1616 1388 1337 1278 1243 1566 1774 2016 2021 2079 2073 1981 1661 1260 1101 607 365 154 0 0 0 0 0 0 3 3 2 0 0 0 0 2 5 11 0 0 0
CIN
0 -38 -21 -8 -18 -1 0 0 0 -1 -1 -17 -1 0 -1 -45 -45 -45 -43 -36 -16 -4 -6 -5 -1 -1 0 -1 -1 0 0 0 0 0 0 -1 -2 0 0 0 -6 -8 -10 -16
-18 0 -19 -28 -2 -24 -2 -1 -1 -1 -23 -15 0 -8 0 -14 -37 -37 -22 -20 -4 -2 -5 -11 -3 -1 -1 0 -1 0 0 -2 -5 -1 0 -1 -1 -28 -9 -1 0 0 -8 0
0 -23 0 -6 -1 -27 0 0 -1 -3 -18 -1 -1 -105 -83 -23 -33 -31 -24 -12 -10 0 -2 -2 -2 0 -2 -2 -1 0 0 -3 -6 0 -2 -4 -2 0 -7 -1 0 0 -3 0
0 0 0 0 -8 0 0 -6 -7 -10 -1 -17 -130 -2 -92 -228 -3 -24 -23 -8 -1 -2 0 -28 -17 -91 -38 0 -1 0 -2 -9 -17 -11 0 0 -1 0 0 0 -5 0 -1 0
0 0 0 -3 -35 -3 0 -8 -23 -28 -8 0 0 -1 0 -29 0 -3 -26 -3 0 -1 0 -1 -33 -233 -1 -10 -1 0 -1 -9 -7 -15 0 -1 -3 -23 -15 0 0 0 0 0
0 0 0 0 0 0 -11 -8 -7 0 0 0 -24 -24 -9 -145 -2 -1 -1 -14 -3 -1 -2 -5 -22 -32 -1 -4 -3 -1 0 -18 -26 -30 -92 -4 -1 -5 -10 -10 -2 -1 -1 -2
0 0 0 0 0 0 0 0 -6 -5 0 -15 -15 -93 -4 -4 -12 -10 -8 -11 -5 0 0 -2 -3 -30 -9 -7 -2 -7 -13 -1 -11 -100 -92 -57 -1 -5 -8 -14 -23 -25 -71 -64
0 0 0 0 0 0 0 0 0 -5 -1 -64 -179 -117 0 -16 -25 -22 -26 -10 -11 0 0 -1 -29 -15 -29 -14 -6 -25 -12 -38 -52 -31 -21 -29 -35 -21 -37 -37 -37 -33 -59 -114
0 0 0 0 0 0 0 0 0 0 0 -1 -59 -77 -175 -12 -22 -24 -24 -27 -18 -15 -10 -21 -27 -25 -26 -41 -53 -44 -17 -18 -22 -15 -2 -5 -27 -40 -64 -90 -71 -115 -177 0
0 0 0 0 0 0 0 0 0 0 0 -2 -7 -3 0 -21 -14 -27 -25 -30 -45 -38 -32 -26 -39 -39 -28 -6 -28 -27 -10 -16 -25 -17 0 -17 -51 -122 -165 -119 0 0 0 0
0 0 0 0 0 0 0 0 0 0 0 0 0 -3 -236 -319 -149 -15 -25 -59 -71 -70 -71 -67 -55 -68 -39 -7 -40 -72 -83 -78 -67 -80 -117 -178 -109 0 0 0 0 0 0 0
0 0 0 0 0 0 0 0 0 0 0 -1 0 -85 -31 -216 -15 -12 -32 -76 -86 -86 -82 -67 -49 -80 -83 -38 -79 -113 -141 -139 -162 -206 -288 0 0 0 0 0 0 0 0 0
0 0 0 0 0 0 0 0 0 0 0 0 -1 -3 -5 -4 0 -19 -47 -102 -124 -110 -94 -95 -142 -110 -78 -137 -94 -113 -130 -178 -253 -279 0 0 0 0 0 0 0 0 0 0
0 0 0 0 0 0 0 0 0 0 0 0 0 -6 -15 -7 -6 -35 -64 -122 -133 -112 -143 -159 -130 -89 -129 -139 -142 -127 -189 -274 -41 0 0 0 0 0 0 0 0 0 0 0
0 0 0 0 0 0 0 0 0 0 0 0 0 0 -2 -5 -10 -40 -73 -148 -129 -132 -140 -118 -120 -159 -143 -201 -172 -163 -282 -47 0 0 0 0 0 0 0 0 0 0 0 0
0 0 0 0 0 0 0 0 0 0 0 0 0 0 -2 -5 -1 -48 -78 -160 -148 -143 -122 -99 -123 -141 -152 -164 -159 -262 -297 0 0 0 0 0 0 0 0 0 0 0 0 0
0 0 0 0 0 0 0 0 0 0 0 0 0 0 0 -2 -7 -40 -87 -152 -129 -120 -118 -104 -114 -105 -128 -148 -216 -329 0 0 0 0 0 0 0 0 0 0 0 0 0 0
0 0 0 0 0 0 0 0 0 0 0 0 0 -1 -2 -1 -5 -43 -85 -140 -104 -98 -83 -94 -82 -76 -96 -204 -315 0 0 0 0 0 0 0 0 0 0 0 0 0 0 0
0 0 0 0 0 0 0 0 0 0 0 0 0 -1 -1 -10 -19 -58 -86 -89 -92 -69 -65 -73 -67 -84 -167 -295 0 0 0 0 0 0 0 0 0 0 0 0 0 0 0 0
-1 -1 0 0 -1 0 -1 0 0 0 0 0 0 -2 0 -11 -15 -35 -90 -83 -75 -75 -72 -69 -116 -206 -304 -197 0 0 0 0 0 0 0 0 0 0 0 0 0 0 0 0
0 -4 0 0 0 0 -4 -3 -1 0 0 0 -1 -2 0 -10 -6 -29 -83 -72 -70 -89 -101 -130 -205 -279 -358 0 0 0 0 0 0 0 0 0 0 0 0 0 0 0 0 0
0 -1 0 -1 0 -1 -1 -38 -1 -3 -1 -2 -12 -2 -3 -13 -19 -47 -109 -95 -93 -101 -141 -205 -253 -312 -374 0 0 0 0 0 0 0 0 0 0 -1 0 0 0 0 0 0
-151 -321 -1 -3 -3 -20 -3 -9 -1 -15 -21 -3 -5 -5 -7 -15 -38 -79 -112 -112 -109 -117 -191 -230 -266 -364 0 0 0 0 0 0 0 0 0 0 0 0 0 0 0 -1 -9 -1
-21 -320 0 -9 -3 -193 -3 0 -2 -15 -3 -39 -14 -1 -8 -12 -60 -101 -90 -112 -127 -146 -166 -228 -330 -422 0 0 0 0 0 0 0 0 0 0 0 0 0 0 0 0 0 0
-2 -34 -6 -4 -12 -10 -6 -6 -32 -67 -51 -38 -20 -11 -26 -15 -49 -48 -70 -112 -121 -150 -184 -255 -330 -255 0 0 0 0 0 0 0 0 0 0 0 0 0 0 0 0 -1 0
0 0 -4 -167 -5 -23 -7 -48 -74 -78 -59 -45 -32 -25 -40 -52 -63 -87 -124 -134 -148 -159 -243 -279 -326 -10 0 0 0 0 0 0 0 0 0 0 0 0 0 0 -3 0 0 0
Wind_Speed
18 16 16 20 14 11 6 8 2 5 3 8 7 8 19 17 16 15 15 16 15 15 15 14 13 12 13 9 12 11 8 9 6 6 5 4 5 4 4 4 5 7 9 9
21 18 19 16 5 6 11 8 10 5 4 8 9 7 11 20 19 16 15 15 16 15 17 13 12 13 12 13 12 12 10 10 9 7 5 4 5 4 6 3 4 6 8 10
23 17 19 16 8 12 13 13 4 6 10 18 13 8 12 13 17 17 15 14 15 16 17 13 6 5 8 12 14 13 12 12 10 8 5 5 5 4 2 3 3 4 7 10
23 20 18 18 15 15 18 11 3 11 14 3 24 3 11 14 17 17 17 16 15 16 16 16 9 7 9 6 8 13 13 13 11 9 8 8 4 5 4 4 1 3 4 4
23 19 22 17 17 18 15 3 8 12 14 19 14 9 10 13 19 18 15 16 16 17 13 19 19 14 13 7 8 10 10 9 9 8 2 4 2 2 4 4 3 3 1 3
19 15 23 16 19 18 13 15 9 14 15 15 8 10 14 8 6 11 16 15 16 19 14 16 20 16 10 8 8 11 11 3 6 5 11 9 6 3 2 3 2 2 1 4
19 18 12 15 20 22 21 15 12 15 15 3 13 16 11 13 9 6 5 15 16 17 18 19 14 14 10 11 11 11 11 8 8 4 8 10 4 3 2 2 5 4 3 5
18 19 19 18 20 17 18 18 15 18 17 9 11 12 6 12 12 8 7 9 14 15 17 16 14 12 12 11 11 11 11 8 6 5 5 6 5 2 4 6 4 4 3 4
18 20 18 19 17 21 19 19 21 26 26 9 15 11 26 15 14 8 12 11 13 14 17 17 16 13 10 11 11 10 10 7 7 7 6 7 6 5 6 4 3 4 6 6
20 13 17 17 15 17 20 15 12 14 22 17 21 7 1 14 15 12 13 15 14 15 16 15 13 13 11 13 11 11 9 8 8 8 7 7 6 6 5 6 6 6 7 8
22 12 16 15 17 20 16 18 15 20 15 16 13 5 10 18 14 15 15 15 16 16 15 15 14 12 9 10 15 12 12 11 10 9 7 6 6 6 5 6 6 7 7 7
19 13 15 16 15 18 24 21 22 15 17 14 15 3 20 24 21 14 17 16 16 16 16 15 14 14 12 12 12 12 12 11 10 8 7 6 6 5 6 5 5 6 6 6
16 13 15 18 19 21 12 19 21 23 18 17 14 3 8 7 14 14 17 17 16 16 16 16 15 13 14 13 13 12 10 10 10 8 8 6 6 5 6 5 6 7 7 7
9 17 15 16 17 14 20 21 17 19 16 14 16 11 16 10 15 15 16 18 17 16 16 16 15 14 15 12 12 11 11 9 8 8 7 6 6 6 7 6 7 8 8 8
16 17 17 18 20 14 20 20 22 24 22 20 16 16 12 16 17 18 19 18 18 19 18 17 16 16 16 14 12 11 11 9 9 8 8 7 6 7 7 7 8 9 9 8
16 16 14 20 14 19 13 16 18 23 23 21 21 20 17 15 16 16 19 20 20 19 18 18 18 18 17 16 13 12 10 9 8 8 8 8 8 8 8 7 7 8 8 7
12 13 15 14 17 17 21 22 18 20 21 17 19 18 13 10 18 18 20 19 20 20 20 20 19 18 17 16 14 12 11 10 9 9 9 8 8 8 8 8 7 7 7 7
12 10 10 13 14 20 17 16 17 20 20 18 18 18 3 4 12 15 18 20 20 20 21 20 18 17 16 16 15 12 11 9 9 9 8 8 8 8 8 7 6 5 4 4
14 11 9 12 13 15 15 17 14 17 18 17 19 17 11 6 12 14 18 20 19 20 19 18 17 17 17 16 14 12 11 10 10 9 8 7 7 7 8 6 5 4 3 2
19 15 11 12 13 15 16 18 13 15 16 18 18 16 12 14 12 11 19 19 20 21 19 18 18 17 16 15 14 12 11 10 9 9 8 7 7 7 7 5 5 3 4 3
12 13 14 13 12 13 14 8 17 16 11 18 22 14 16 16 13 21 21 20 20 19 21 19 18 16 16 15 13 12 11 10 9 9 9 8 8 7 6 5 3 2 1 2
16 16 13 14 17 18 6 9 7 3 11 10 4 9 13 13 9 25 23 23 22 21 21 20 17 16 15 14 12 12 11 11 10 10 9 8 8 9 7 5 4 3 3 6
1 6 11 5 5 16 8 9 10 12 12 13 13 5 13 14 17 23 23 23 22 21 19 18 17 17 14 13 11 12 12 11 11 10 9 9 7 4 4 4 4 7 7 4
9 27 22 4 11 3 23 14 14 18 12 9 12 8 14 16 21 22 22 21 20 19 18 17 18 17 14 12 11 12 12 11 11 10 9 8 8 6 5 8 6 2 1 4
11 10 16 12 12 14 19 10 12 14 15 9 8 6 14 18 21 22 20 21 18 19 17 16 16 15 14 13 12 13 12 12 11 9 9 9 8 8 6 2 2 2 5 5
15 12 9 11 12 9 11 11 13 14 14 11 7 13 15 21 22 23 20 18 14 15 17 15 15 15 14 13 12 12 12 11 10 8 8 6 7 8 4 3 6 7 2 9
Wind_Direction
210 233 236 242 228 6 309 336 50 96 116 274 235 232 161 188 199 191 187 172 178 183 172 166 182 181 175 195 172 175 193 153 192 188 189 184 218 216 231 223 230 224 241 220
232 226 244 250 81 253 254 246 240 212 207 261 263 9 188 176 204 200 195 180 178 182 153 168 179 171 192 178 178 174 180 177 199 188 196 195 184 210 230 262 219 254 262 275
231 210 236 259 191 243 244 252 301 325 300 256 317 79 269 279 193 205 199 196 184 181 167 136 195 156 265 174 176 171 179 171 191 182 175 187 176 205 209 259 228 256 251 262
235 239 237 212 234 234 258 232 198 266 279 255 214 236 164 268 199 200 197 190 192 185 167 143 142 75 221 229 165 163 174 173 179 185 181 205 225 207 130 196 166 286 195 254
233 227 240 236 230 238 255 141 289 288 285 281 295 321 179 194 181 186 203 201 194 172 192 162 137 176 216 184 184 156 164 170 155 167 200 195 206 18 138 159 175 145 219 298
252 232 238 221 240 243 252 260 261 258 260 264 60 295 138 134 137 156 180 203 195 167 182 135 156 175 194 131 147 149 151 109 153 144 105 346 292 211 257 121 178 120 58 124
218 238 237 248 234 240 236 234 243 237 234 211 355 315 117 142 113 129 187 176 187 175 161 146 138 166 149 157 156 143 140 152 127 122 142 173 242 326 325 296 57 44 59 14
216 214 210 213 239 237 212 238 245 252 255 52 41 263 114 105 107 125 146 164 177 172 153 148 158 159 155 145 146 132 143 145 163 169 173 151 174 140 63 50 70 58 48 51
227 224 199 210 216 237 234 217 245 259 268 210 168 200 273 140 125 137 147 159 157 159 153 157 166 154 147 132 142 138 136 128 152 142 136 143 145 115 91 72 24 33 34 14
257 272 202 188 229 229 250 263 227 246 262 272 263 211 334 174 138 146 146 148 146 153 151 157 162 138 162 144 122 124 126 126 127 120 127 105 102 87 83 64 48 42 31 25
247 238 242 183 204 230 216 238 250 270 234 262 264 200 100 56 283 158 153 149 154 153 158 155 147 147 145 139 117 131 129 139 135 114 109 101 91 83 68 68 51 36 41 20
234 251 225 204 231 218 250 218 234 244 252 260 287 163 213 186 207 154 146 148 150 155 152 148 137 144 145 131 138 135 145 138 118 122 123 113 100 89 79 59 70 45 43 30
217 231 253 235 202 221 230 255 219 242 250 254 257 262 107 103 124 148 142 149 151 152 149 135 144 148 135 138 136 143 142 133 138 144 124 107 103 93 79 65 57 55 40 36
293 244 231 248 227 213 207 235 255 265 259 242 247 191 161 171 150 152 151 149 155 156 147 148 146 142 133 152 139 144 134 138 124 96 94 101 84 66 67 70 66 62 54 46
239 251 247 257 269 254 240 213 226 243 251 260 265 257 248 184 174 166 156 153 163 156 162 155 144 155 141 141 148 144 137 123 118 126 124 102 92 88 82 78 72 67 56 54
221 247 250 250 252 255 250 254 244 222 241 249 263 273 283 95 122 163 163 162 172 164 158 156 147 146 145 147 151 138 136 132 126 119 111 113 112 112 103 89 81 78 78 69
224 228 247 243 245 244 242 239 239 250 246 229 246 251 265 238 157 174 165 168 173 163 164 151 157 154 149 151 143 145 137 132 131 125 127 122 122 114 102 98 94 86 76 68
249 260 259 250 241 243 251 243 222 249 244 241 246 256 280 238 143 166 164 173 172 161 159 156 158 152 153 145 143 137 132 128 128 132 129 130 131 121 114 111 102 102 98 85
231 249 246 254 238 255 241 247 244 225 233 242 242 239 133 160 133 156 171 173 167 159 157 159 153 150 146 136 139 135 139 139 138 137 135 138 140 131 134 135 132 136 149 164
229 208 256 261 277 251 243 245 205 231 251 245 234 238 150 149 187 169 171 165 158 155 157 153 146 143 135 139 142 143 142 142 141 135 134 137 142 144 149 145 166 177 229 151
199 245 217 227 250 260 278 301 229 202 247 219 230 211 160 185 219 144 162 156 153 153 153 145 146 143 145 146 146 147 145 146 139 136 138 141 146 150 154 171 185 189 254 320
235 201 225 236 246 250 138 329 261 244 250 271 30 241 164 184 226 148 154 150 152 154 144 148 149 147 149 149 150 148 144 136 143 145 145 152 166 201 161 179 182 199 237 229
38 250 248 306 212 342 331 285 307 32 352 348 348 288 134 166 143 150 151 149 151 152 153 155 148 147 145 150 150 146 137 148 151 154 156 169 178 179 156 190 195 226 207 278
201 184 247 273 260 209 299 328 350 349 311 324 314 287 154 160 156 155 149 149 152 150 161 150 148 149 146 143 147 139 150 153 158 160 171 168 186 189 189 205 189 261 350 346
301 47 299 255 257 268 267 12 6 335 307 299 280 187 176 150 152 152 150 149 152 157 153 148 156 148 146 149 150 150 155 164 167 171 183 185 163 206 166 281 59 13 60 11
288 274 223 268 58 2 354 348 329 321 310 266 209 163 157 156 152 153 145 143 144 155 146 156 151 146 149 153 154 152 159 173 170 176 186 192 156 188 187 198 177 212 185 186